Location: C�mpuri de-Sus
(45.9500°N, 22.5500°E)
Time: 03:31:50
(UTC+00:00)

Cosmos 839 Rocket - Pass Details

Date: 01 June 2022
Orbit: 968 x 2085 km, 65.9° (Epoch: 03 July)

Event Time Altitude Azimuth Distance (km) Brightness Sun altitude
Rises 19:43:35 0° 325° (NW) 3,667 9.1 -12.4°
Reaches altitude 10° 19:46:44 10° 341° (NNW) 2,736 7.6 -12.8°
Maximum altitude 19:51:32 22° 32° (NNE) 2,073 6.0 -13.3°
Drops below altitude 10° 19:56:43 10° 82° (E) 2,997 6.3 -13.8°
Enters shadow 19:59:52 - 95° (E) 3,961 6.8 -14.1°
